Regional Weather Roundup
Issued by NWS

Home | Current Version | Previous Version | Text Only | Print | Product List | Glossary Off
Versions: 1 2 3 4 5 6 7 8 9 10 11 12 13 14 15 16 17 18 19 20 21 22 23 24 25 26 27 28 29 30 31 32 33 34 35 36 37 38 39 40 41 42 43 44 45 46 47 48 49 50

000
ASUS45 KSLC 040210
RWRUT

UTAH REGIONAL WEATHER ROUNDUP
NATIONAL WEATHER SERVICE SALT LAKE CITY UT
800 PM MDT THU SEP 03 2015

UTZ001>011-023>025-040300-

NORTHERN UTAH

CITY           SKY/WX    TMP DP  RH WIND       PRES   REMARKS
BRIGHAM CITY   CLOUDY    76  41  28 N14G24    29.76R
HILL AFB       MOCLDY    80  34  18 S15       29.78S
LOGAN          MOCLDY    70  44  39 N12       29.79S
OGDEN          PTCLDY    81  34  18 S9        29.75S
PROVO AIRPORT  PTCLDY    79  43  27 SW9       29.81S
SALT LAKE CITY PTCLDY    85  29  13 S17       29.74S
VERNAL         CLEAR     76  36  23 S7        29.88S
WENDOVER       CLEAR     82  23  11 SW18      29.71S
HEBER CITY     PTCLDY    73  32  21 SW8       29.88S
WEST JORDAN    CLEAR     82  34  17 S17G24    29.80R

$$

UTZ012>022-026-027-040300-

SOUTHERN/CENTRAL UTAH

CITY           SKY/WX    TMP DP  RH WIND       PRES   REMARKS
BLANDING       CLEAR     76  36  23 S6        30.09R
BRYCE CANYON   CLEAR     65  33  30 S12       30.13R
CEDAR CITY     CLEAR     74  31  20 SW12      29.95S
DELTA          CLEAR     80  27  14 S21G26    29.84R
HANKSVILLE     CLEAR     84  28  13 SW15      29.88R
MILFORD        CLEAR     79  29  16 SW22G29   29.87S
MOAB/CYNLANDS  CLEAR     81  36  19 SW10      29.86S
PRICE          PTCLDY    75  33  21 SE9       29.93S
ST GEORGE      PTCLDY    91  32  12 SW16      29.78R
KANAB          CLEAR     73  43  33 S5        29.98S

$$

REGIONAL REPORTS     COLORADO/ARIZONA

CITY           SKY/WX    TMP DP  RH WIND       PRES   REMARKS
CRAIG, CO      CLEAR     65  47  52 E15G23    30.03F
GRAND JUNCTION CLEAR     75  49  39 SE12      29.92S
RIFLE          CLEAR     67  52  58 E5        30.01S
MONTROSE       CLEAR     70  53  54 CALM      30.03S
CORTEZ         PTCLDY    71  44  37 S6        30.03S
PAGE, AZ       PTCLDY    86  35  16 S6        29.88R
GRAND CANYON   CLEAR     69  38  32 SW8       30.11S
KINGMAN        CLEAR     86  31  13 SW18G24   29.86S
FLAGSTAFF      PTCLDY    66  39  37 SW13      30.17R

$$

REGIONAL REPORTS    NEVADA/IDAHO/WYOMING

CITY           SKY/WX    TMP DP  RH WIND       PRES   REMARKS
LAS VEGAS, NV  PTCLDY    93  32  11 SW16G23   29.67R
ELY            CLEAR     72  24  16 S16G24    29.91R
ELKO           PTCLDY    74  26  16 W10       29.79S
POCATELLO, ID  LGT RAIN  63  54  72 S7        29.83F
BURLEY         CLEAR     65  43  44 W9        29.82R
EVANSTON, WY   PTCLDY    70  24  17 SW17      29.98S
ROCK SPRINGS   PTCLDY    70  32  24 S13       29.97S
KEMMERER       PTCLDY    66  27  22 SW7       29.99S

$$


USA.gov is the U.S. government's official web portal to all federal, state and local government web resources and services.